Regional Weather Roundup
Issued by NWS Jackson, KY

Home | Current Version | Previous Version | Graphics & Text | Print | Product List | Glossary On
Versions: 1 2 3 4 5 6 7 8 9 10 11 12 13 14 15 16 17 18 19 20 21 22 23 24 25 26 27 28 29 30 31 32 33 34 35 36 37 38 39 40 41 42 43 44 45 46 47 48 49 50
000
ASUS43 KJKL 311310
RWRJKL

EAST KENTUCKY HOURLY WEATHER ROUNDUP
NATIONAL WEATHER SERVICE JACKSON KY
900 AM EDT MON AUG 31 2015

NOTE: "FAIR" INDICATES FEW OR NO CLOUDS BELOW 12,000 FEET WITH
NO SIGNIFICANT WEATHER AND/OR OBSTRUCTIONS TO VISIBILITY.

* THESE REPORTS ARE NOT UNDER NWS QUALITY CONTROL AND MAY NOT
  REPORT WEATHER SUCH AS PRECIPITATION AND FOG.

KYZ079-080-083-085-087-088-110-112-115-119-120-311400
...EASTERN KENTUCKY...

CITY           SKY/WX    TMP DP  RH WIND       PRES   REMARKS
JACKSON        SUNNY     69  67  93 CALM      30.17S
LONDON         SUNNY     70  63  78 CALM      30.17R
SOMERSET*      FOG       64  64 100 CALM      30.18R VSB 1/4
MONTICELLO*    SUNNY     67  67 100 CALM      30.19S
WILLIAMSBURG*  CLOUDY    64  64 100 CALM      30.17R
MIDDLESBORO*   SUNNY     65  63  93 CALM      30.18S
HAZARD APT*    MOSUNNY   66  66 100 CALM      30.17R
BLACK MTN*       N/A     64  59  82 N2          N/A
PIKEVILLE APT* SUNNY     68  66  94 CALM      30.18R
BIG SANDY*     MOSUNNY   69  68  97 CALM      30.17R
MOREHEAD APT*  SUNNY     70  66  88 CALM      30.18R
$$

KYZ035-036-041-042-044-050-067-078-099-311400
...CENTRAL KENTUCKY...

CITY           SKY/WX    TMP DP  RH WIND       PRES   REMARKS
MT STERLING*   MOSUNNY   70  68  94 CALM      30.18R
FLEMING/MASON* MOSUNNY   70  66  88 CALM      30.17R
DANVILLE*      SUNNY     68  63  83 CALM      30.18R
RICHMOND*      SUNNY     68  63  83 CALM      30.16R
LEXINGTON      PTSUNNY   72  65  78 VRB3      30.16R
FRANKFORT      SUNNY     69  64  84 CALM      30.14R
$$

KYZ091>093-OHZ055-061-077-WVZ005-015-034-035-042-311400
...SOUTHERN OHIO/WEST VIRGINIA...

CITY           SKY/WX    TMP DP  RH WIND       PRES   REMARKS
COVINGTON      PTSUNNY   70  67  90 SW5       30.14R
COLUMBUS       MOSUNNY   70  67  90 CALM      30.12R
DAYTON         MOSUNNY   72  69  90 SW6       30.14R
WILMINGTON     SUNNY     71  66  84 W6        30.13S
HUNTINGTON     SUNNY     69  67  93 S3        30.14R
CHARLESTON     MOSUNNY   69  67  93 CALM      30.14S
PINEVILLE*     CLOUDY    68  68 100 MISG      30.23S
BECKLEY        CLOUDY    68  61  78 CALM      30.21R
BLUEFIELD      CLOUDY    68  57  68 W3        30.22F
$$

VAZ002-007-008-TNZ017-027-036-066-071-311400
...SOUTHWEST VIRGINIA/EAST TENNESSEE...

CITY           SKY/WX    TMP DP  RH WIND       PRES   REMARKS
WISE*          PTSUNNY   66  64  94 W3        30.23S
JONESVILLE*    CLOUDY    68  59  73 CALM      30.20R
ABINGDON*      MOSUNNY   68  63  83 CALM      30.20R
BRISTOL        PTSUNNY   68  64  87 CALM      30.17S
KNOXVILLE      MOSUNNY   69  67  93 CALM      30.15R
OAK RIDGE      CLOUDY    67  66  97 CALM      30.17R FOG
CROSSVILLE     SUNNY     69  63  81 CALM      30.20R
NASHVILLE      MOSUNNY   71  64  78 NE3       30.15R
$$

...KEY TO REMARKS...
VSB - VISIBILITY IN MILES
WCI - WIND CHILL INDEX
HX  - HEAT INDEX

$$


USA.gov is the U.S. government's official web portal to all federal, state and local government web resources and services.